Change the Weather History Date:

Friday, May 10, 2013

  Actual Average Record
Temperature  
Mean Temperature 74 °F 70 °F  
Max Temperature 89 °F 82 °F 97 °F (1896)
Min Temperature 59 °F 58 °F 39 °F (1967)
Degree Days  
Heating Degree Days 0 1  
Month to date heating degree days 11 12  
Since 1 July heating degree days 2252 2543  
Cooling Degree Days 9 6  
Month to date cooling degree days 21 49  
Year to date cooling degree days 149 144  
Growing Degree Days 24 (Base 50)    
Moisture  
Dew Point 58 °F    
Average Humidity 59    
Maximum Humidity 84    
Minimum Humidity 34    
Precipitation  
Precipitation 0.00 in 0.09 in 1.75 in (1975)
Month to date precipitation 2.31 0.92  
Year to date precipitation 17.31 14.46  
Sea Level Pressure  
Sea Level Pressure 30.03 in    
Wind  
Wind Speed 6 mph (SSW)    
Max Wind Speed 18 mph    
Max Gust Speed 24 mph    
Visibility 10 miles    
Events      
T = Trace of Precipitation, MM = Missing Value Source: NWS Daily Summary

Daily Weather History Graph

Daily Weather History Graph

Search for Another Location

Airport or City:

Trip Planner

Search our weather history database for the weather conditions in past years. The results will help you decide how hot, cold, wet, or windy it might be!

Date:

Astronomy

May. 10, 2013 Rise Set
Actual Time 6:26 AM EDT 8:15 PM EDT
Civil Twilight 5:59 AM EDT 8:42 PM EDT
Nautical Twilight 5:26 AM EDT 9:15 PM EDT
Astronomical Twilight 4:51 AM EDT 9:50 PM EDT
Moon 6:50 AM EDT (5/10) 9:02 PM EDT (5/10)
Length of Visible Light 14h 43m
Length of Day
13h 48m
New Moon, 0% of the Moon is Illuminated
May 10
New Moon
May 18
First Quarter
May 25
Full
May 31
Last Quarter
Jun 8
New

Hourly Weather History & Observations

Time (EDT) Temp. Heat Index Dew Point Humidity Pressure Visibility Wind Dir Wind Speed Gust Speed Precip Events Conditions
12:56 AM 64.0 °F - 59.0 °F 84% 30.08 in 10.0 mi Calm Calm - N/A   Clear
1:56 AM 63.0 °F - 57.9 °F 84% 30.07 in 10.0 mi Calm Calm - N/A   Clear
2:56 AM 62.1 °F - 57.9 °F 86% 30.06 in 10.0 mi Calm Calm - N/A   Clear
3:56 AM 62.1 °F - 57.0 °F 84% 30.06 in 10.0 mi Calm Calm - N/A   Clear
4:56 AM 60.1 °F - 55.0 °F 83% 30.06 in 10.0 mi Calm Calm - N/A   Clear
5:56 AM 61.0 °F - 55.9 °F 83% 30.05 in 9.0 mi Calm Calm - N/A   Clear
6:56 AM 62.1 °F - 55.9 °F 80% 30.06 in 6.0 mi Calm Calm - N/A   Haze
7:56 AM 64.9 °F - 57.9 °F 78% 30.06 in 6.0 mi Calm Calm - N/A   Haze
8:56 AM 69.1 °F - 60.1 °F 73% 30.06 in 9.0 mi Calm Calm - N/A   Scattered Clouds
9:56 AM 77.0 °F - 62.1 °F 60% 30.07 in 9.0 mi Calm Calm - N/A   Partly Cloudy
10:56 AM 82.0 °F 83.0 °F 62.1 °F 51% 30.06 in 10.0 mi SSW 3.5 mph - N/A   Partly Cloudy
11:56 AM 86.0 °F 85.0 °F 57.9 °F 38% 30.06 in 10.0 mi SSW 11.5 mph 18.4 mph N/A   Scattered Clouds
12:56 PM 87.1 °F 85.7 °F 55.9 °F 35% 30.06 in 10.0 mi SW 11.5 mph 20.7 mph N/A   Scattered Clouds
1:56 PM 86.0 °F 84.5 °F 55.0 °F 35% 30.04 in 10.0 mi WSW 11.5 mph - N/A   Scattered Clouds
2:56 PM 87.1 °F 85.3 °F 55.0 °F 33% 30.02 in 10.0 mi SW 13.8 mph - N/A   Mostly Cloudy
3:56 PM 87.1 °F 85.3 °F 55.0 °F 33% 29.99 in 10.0 mi SSW 12.7 mph - N/A   Mostly Cloudy
4:56 PM 87.1 °F 85.7 °F 55.9 °F 35% 29.98 in 10.0 mi SW 15.0 mph 19.6 mph N/A   Mostly Cloudy
5:56 PM 84.9 °F 83.7 °F 55.9 °F 37% 29.97 in 10.0 mi SW 5.8 mph - N/A   Mostly Cloudy
6:56 PM 82.9 °F 82.6 °F 57.9 °F 42% 29.97 in 10.0 mi SW 4.6 mph - N/A   Mostly Cloudy
7:56 PM 81.0 °F 81.3 °F 59.0 °F 47% 29.97 in 10.0 mi South 3.5 mph - N/A   Overcast
8:56 PM 78.1 °F - 60.1 °F 54% 29.97 in 10.0 mi SSW 4.6 mph - N/A   Overcast
9:56 PM 75.9 °F - 61.0 °F 60% 29.98 in 10.0 mi South 5.8 mph - N/A   Mostly Cloudy
10:56 PM 75.9 °F - 61.0 °F 60% 29.99 in 10.0 mi South 8.1 mph - N/A   Overcast
11:56 PM 75.0 °F - 60.1 °F 60% 29.99 in 10.0 mi South 11.5 mph - N/A   Scattered Clouds